Location: Bremen
(53.0796°N, 8.8241°E)
Time: 12:29:30
(UTC+01:00)

ISS - Pass Details

Date: 09 January 2018
Orbit: 402 x 407 km, 51.6° (Epoch: 18 January)

Event Time Altitude Azimuth Distance (km) Brightness Sun altitude
Exits shadow 05:48:47 37° 118° (ESE) 651 -2.4 -23.9°
Drops below altitude 10° 05:50:57 10° 104° (ESE) 1,468 0.1 -23.5°
Sets 05:53:03 0° 102° (ESE) 2,329 1.5 -23.2°
